EHI
13 14 14 17 23 26 27 27 26 27 28 24 20 20 17 13 11 14 16 12 7 6 6 5 5 5 5 4 3 2 4 6 8 9 8 9 12 13 13 11 8 7 8
15 15 15 19 25 29 29 28 29 31 31 27 23 21 18 16 15 17 19 16 10 7 6 5 6 6 6 6 5 4 5 7 7 6 5 6 9 10 9 8 8 8 10
17 17 17 21 27 31 31 32 35 36 35 31 26 22 20 20 19 20 22 20 15 10 7 7 8 9 9 8 7 6 7 8 7 5 2 2 6 7 7 7 9 11 12
17 18 19 22 27 29 30 35 41 43 39 34 28 24 22 20 21 22 23 21 19 15 10 10 13 13 10 9 8 9 9 9 8 6 3 2 4 7 8 8 10 11 11
16 20 23 25 24 25 29 38 45 46 42 37 32 27 23 21 22 22 21 20 19 17 14 13 16 16 13 10 8 9 9 9 9 8 6 3 4 6 7 8 9 9 8
14 20 26 27 24 24 32 42 49 49 44 39 35 30 28 27 26 25 22 19 18 18 17 17 18 18 16 12 9 7 8 8 10 11 10 7 5 5 5 5 6 6 5
12 18 27 30 29 29 37 49 57 53 47 43 38 35 34 34 32 29 26 22 20 20 22 23 22 20 17 14 11 10 9 9 10 12 13 11 8 5 4 3 3 4 4
13 17 26 33 36 38 43 54 61 58 50 45 43 41 40 38 34 32 31 28 24 23 27 29 26 23 19 15 14 13 13 12 11 10 12 13 10 7 6 4 3 2 2
14 17 24 32 38 42 47 55 61 61 55 49 46 44 43 40 36 35 33 30 26 25 28 30 27 24 21 17 15 15 15 14 13 12 12 11 8 6 7 6 3 2 2
15 19 24 28 33 38 44 50 56 58 55 51 47 43 43 42 39 38 35 31 28 29 30 28 25 25 23 19 17 17 15 14 14 15 13 10 7 5 7 8 6 4 4
16 22 25 25 27 31 38 44 49 52 52 50 47 44 44 44 42 41 38 36 35 36 35 29 26 28 27 23 19 16 14 13 14 15 13 11 8 6 7 8 7 5 5
14 19 24 24 24 30 37 43 47 49 51 52 50 47 45 45 44 43 42 43 44 42 38 33 31 32 31 26 22 17 14 15 16 16 16 15 12 11 10 8 7 6 6
12 17 23 27 28 32 39 44 46 47 51 54 52 49 48 49 47 45 45 46 46 43 39 36 35 35 31 27 25 21 17 17 19 20 21 19 16 14 13 11 9 7 6
13 18 28 34 35 36 40 43 42 44 50 53 52 51 53 55 52 49 47 47 44 41 38 37 37 35 31 27 25 23 20 20 21 24 24 22 18 16 14 13 13 11 9
17 23 34 40 40 40 41 41 41 44 50 53 53 54 57 59 57 53 50 47 42 38 36 35 35 33 28 24 23 22 21 21 23 25 24 20 18 15 12 11 12 13 12
22 28 36 41 42 44 46 46 45 46 49 52 55 57 61 62 60 56 51 46 40 36 33 32 31 30 25 19 18 20 21 22 23 25 22 17 16 15 11 8 8 9 9
29 31 34 37 41 43 47 50 49 47 47 49 53 59 63 63 60 56 52 46 40 34 31 30 29 27 22 15 11 13 19 23 25 25 22 16 15 17 15 11 9 9 8
34 31 30 32 35 38 42 46 47 46 46 47 50 57 62 63 60 56 53 49 42 34 30 29 28 24 19 12 6 7 15 23 26 25 21 17 16 18 18 17 18 18 17
34 31 28 29 34 38 40 42 43 45 46 47 50 56 62 62 59 57 53 49 42 35 30 28 27 23 17 11 5 5 13 22 27 26 22 19 18 18 19 22 26 28 27
32 31 29 31 38 44 44 43 42 44 48 50 53 57 61 60 58 56 52 46 39 33 28 27 27 25 19 12 5 5 13 22 27 28 25 20 16 13 13 19 25 28 28
32 33 34 37 46 51 50 48 46 45 47 52 56 57 57 56 55 53 49 43 36 31 28 28 28 27 23 16 7 5 11 19 25 28 25 17 10 6 5 10 17 19 18
31 35 39 45 52 56 55 52 49 47 46 49 52 54 52 50 49 49 46 41 35 30 29 28 26 25 25 20 10 4 6 13 21 23 20 11 4 1 1 3 7 8 8
29 32 38 46 52 55 54 51 49 47 45 45 46 48 47 45 45 45 44 39 33 29 27 24 22 23 25 22 13 4 2 6 12 15 11 5 1 0 0 0 2 3 4
28 30 35 41 45 47 46 45 47 46 43 42 43 43 42 41 41 41 38 33 28 25 23 20 19 22 25 23 15 9 5 4 5 6 6 4 3 3 3 3 4 6 6
29 30 33 36 37 37 38 40 44 45 44 42 42 41 38 37 36 34 28 21 18 15 15 15 16 19 21 18 13 10 9 6 4 3 6 8 9 9 9 9 10 11 12
29 28 31 33 32 32 34 38 43 46 45 43 41 40 37 35 32 27 18 11 8 8 7 9 13 16 15 12 9 9 8 7 5 4 7 12 12 12 12 12 12 14 15
Wind_Speed
12 12 11 11 12 10 8 6 6 4 3 3 3 2 2 2 2 3 3 3 2 2 2 2 1 1 2 2 2 1 1 1 1 1 1 1 2 2 2 1 2 3 3
11 12 12 11 12 10 8 7 7 6 4 3 2 2 2 2 2 2 3 3 2 2 2 2 1 2 2 2 2 1 1 0 1 1 0 1 2 2 2 2 2 3 2
14 13 11 11 12 12 10 8 7 6 5 4 3 2 2 2 2 2 3 3 3 2 2 2 2 1 1 2 1 1 1 0 1 1 1 1 1 1 1 1 2 2 2
14 14 14 12 12 12 11 9 7 6 5 5 4 4 3 3 3 2 2 3 3 3 3 2 2 1 1 2 1 1 0 0 1 0 0 1 1 1 1 0 1 2 2
14 14 14 13 12 13 12 10 8 7 6 5 4 3 3 3 2 3 3 3 2 2 3 2 2 1 1 2 1 1 1 1 1 1 0 0 0 1 1 1 1 1 1
12 14 14 12 11 12 12 12 10 8 7 6 5 4 3 3 3 3 3 3 3 2 3 3 2 2 1 2 1 1 1 1 1 1 1 1 0 0 0 1 1 1 1
10 12 13 13 11 11 11 12 12 9 8 7 6 5 4 4 4 4 4 3 3 3 3 3 2 2 1 2 1 1 1 0 1 1 1 1 1 1 1 1 0 1 1
9 10 11 12 11 11 11 12 12 11 9 8 6 5 5 4 4 4 3 3 3 3 4 4 3 2 2 2 2 1 1 1 1 1 1 1 1 1 0 1 1 0 0
9 9 9 11 10 10 10 11 11 10 10 9 7 6 5 4 3 3 3 2 2 3 4 4 4 3 2 2 2 1 1 1 1 1 1 1 1 1 1 0 0 1 1
8 9 9 9 9 9 10 11 12 10 10 10 9 7 6 5 4 3 3 3 3 3 4 3 3 3 3 3 2 2 2 1 1 1 1 1 1 1 1 1 1 1 1
7 7 8 8 9 9 10 11 11 11 10 9 8 7 7 6 5 4 4 3 3 3 3 3 3 3 3 2 2 2 2 2 2 1 1 1 1 2 2 1 1 1 1
6 7 7 7 7 8 9 10 11 11 10 8 8 8 7 6 6 5 4 4 4 4 3 3 3 3 3 3 3 3 3 2 2 2 1 1 1 2 2 2 2 1 1
5 6 6 6 5 6 6 8 10 10 10 10 9 8 8 7 6 5 5 4 4 4 4 4 4 4 3 3 3 3 3 3 2 2 2 2 1 2 2 1 2 2 2
5 5 5 5 3 3 4 6 7 9 9 9 10 8 7 7 6 6 5 5 5 4 4 4 4 4 3 3 3 3 3 3 3 2 2 2 2 2 2 2 2 2 2
4 5 5 5 4 4 3 4 5 6 7 8 8 7 6 6 5 5 5 5 5 6 4 4 4 4 4 3 3 3 4 3 3 2 2 2 1 1 1 2 2 2 2
4 5 5 5 5 4 4 4 4 4 5 6 7 7 7 7 6 6 6 5 5 5 4 5 4 4 4 3 3 3 3 3 3 3 3 3 3 3 3 3 2 2 2
4 4 4 4 4 4 4 4 4 4 5 5 5 6 7 7 7 7 6 6 5 5 5 5 4 4 3 3 3 2 3 3 3 3 3 4 3 3 3 4 4 4 5
3 3 4 4 4 4 4 4 4 4 5 5 5 6 6 6 6 5 6 5 5 5 5 5 4 4 4 5 4 3 4 4 4 4 4 3 3 3 2 3 3 4 4
1 2 3 4 3 3 4 4 5 5 5 5 5 6 6 6 6 6 5 5 4 5 5 5 5 4 4 5 5 4 4 4 4 4 4 4 3 3 2 3 3 3 3
1 2 3 3 3 3 4 5 6 5 5 5 5 5 6 6 7 7 6 5 4 5 5 5 5 5 5 6 7 5 4 4 4 3 3 3 4 3 3 3 3 4 4
1 2 3 3 3 3 4 5 5 5 4 4 4 4 4 5 6 5 5 5 5 5 5 5 5 6 6 8 9 8 4 3 3 3 3 2 5 4 4 4 4 5 4
1 1 2 2 2 3 4 5 4 4 4 4 4 4 4 5 5 5 5 5 5 5 5 5 5 4 5 6 8 9 8 4 3 3 2 2 4 4 5 5 6 6 5
1 1 1 1 1 1 2 3 3 4 4 4 4 4 4 3 4 5 5 5 5 5 5 5 5 4 3 4 7 9 9 6 3 3 3 3 5 5 6 8 8 5 4
1 1 1 1 1 1 0 1 2 4 4 4 4 4 4 4 4 4 5 5 5 5 5 5 4 4 4 3 3 4 4 5 4 3 3 5 7 6 5 4 5 5 5
0 0 1 1 1 1 0 1 2 3 4 4 3 4 4 4 4 3 3 3 3 3 3 3 3 2 3 4 5 4 4 3 3 2 3 3 3 3 4 4 3 4 4
0 0 0 1 1 1 1 1 2 2 3 3 3 3 3 3 3 3 1 1 1 3 3 3 3 2 3 6 6 6 5 5 4 3 4 4 4 4 4 3 3 3 3
Wind_Direction
162 158 161 150 143 144 147 148 146 149 145 145 150 146 139 132 132 135 134 129 124 118 112 106 122 114 94 93 91 81 89 72 58 86 80 86 106 108 112 123 117 113 122
162 159 166 157 151 153 155 154 155 156 157 150 148 143 134 133 125 115 124 131 137 136 124 116 121 106 104 94 92 99 56 30 64 88 92 80 74 62 100 116 125 125 127
169 164 168 167 160 160 164 163 160 158 165 155 160 151 134 123 124 131 130 135 135 119 99 102 103 88 109 120 123 125 111 18 7 61 79 84 100 94 49 93 106 112 111
171 170 172 172 167 165 164 157 157 160 161 166 172 174 160 156 145 143 137 138 137 135 129 127 111 98 92 95 130 100 326 42 347 80 119 114 111 135 136 326 126 134 124
173 173 175 172 172 168 164 162 159 161 164 177 173 180 164 159 139 135 142 144 146 149 143 136 127 125 102 98 66 69 17 12 350 348 31 68 105 236 165 164 172 150 136
172 168 169 168 173 170 166 163 161 165 170 180 176 181 175 155 145 147 159 165 157 160 152 147 140 128 123 125 111 78 77 13 354 341 355 11 10 333 66 120 170 157 145
168 165 166 168 173 170 167 163 163 170 175 181 181 184 181 168 170 178 179 181 165 156 158 149 145 145 152 149 147 130 73 5 332 320 328 349 344 351 53 94 167 149 133
166 167 170 171 173 172 168 164 165 171 176 181 183 186 187 191 190 193 188 180 175 154 148 151 156 163 173 170 165 180 185 177 271 289 303 300 298 334 85 155 149 113 60
164 160 169 169 168 171 171 169 165 170 175 179 179 184 190 202 194 177 184 174 158 159 158 166 167 169 173 185 193 211 236 197 238 267 282 290 311 300 296 226 172 161 235
163 164 169 170 167 172 174 172 169 172 176 180 184 184 191 194 185 183 182 169 162 157 158 167 174 181 183 195 202 209 214 213 236 242 308 314 310 326 323 296 276 244 222
158 157 163 165 172 176 176 176 171 174 179 182 184 183 180 183 185 190 183 172 169 169 166 171 179 187 192 201 212 229 226 220 235 249 247 265 315 323 322 320 318 307 291
158 157 155 160 175 178 175 170 173 178 179 179 180 184 179 179 184 188 186 177 177 179 177 180 182 197 197 204 212 228 233 222 231 241 247 263 278 294 305 316 310 297 289
157 154 152 158 173 172 172 169 177 182 179 179 183 184 181 179 182 186 182 177 179 185 186 183 192 204 204 201 209 218 231 230 229 229 231 239 251 267 281 287 288 287 290
156 154 144 144 155 163 163 166 176 182 178 177 182 181 181 179 181 183 180 181 183 188 193 195 199 203 205 205 211 215 223 230 228 222 225 222 222 240 263 261 256 263 276
162 153 149 146 157 159 161 165 177 175 175 173 177 178 177 172 179 184 179 179 185 193 192 197 206 208 207 212 210 215 217 221 228 228 228 218 187 196 255 276 277 272 265
181 161 151 154 161 169 175 170 174 172 171 173 178 171 173 173 180 185 183 183 189 193 191 199 210 216 222 205 197 216 221 219 226 230 237 228 211 197 209 246 259 261 262
172 166 165 166 174 173 166 173 173 168 176 179 179 174 175 179 183 188 184 188 191 192 200 202 203 206 213 189 186 224 228 229 232 228 236 249 228 204 213 229 235 242 245
163 162 172 179 185 180 166 168 171 172 180 185 186 177 178 178 178 186 188 189 188 195 201 209 209 206 210 195 198 225 231 235 236 231 230 237 237 242 230 241 237 240 244
134 167 182 176 169 176 165 171 183 182 185 188 188 182 179 180 182 187 189 190 193 201 204 206 210 209 215 200 199 211 231 228 240 241 235 226 219 246 245 244 246 252 261
140 175 177 176 163 164 174 181 188 187 192 192 190 182 181 187 190 188 187 191 196 205 209 209 211 209 206 196 196 205 236 233 233 228 218 202 205 211 226 246 252 255 262
148 159 161 173 166 167 176 189 190 188 188 182 180 182 187 193 184 181 185 190 200 207 213 213 215 209 202 194 197 202 226 242 231 227 228 216 192 207 226 243 252 251 261
110 104 104 110 127 160 173 186 189 180 174 176 180 184 188 207 191 181 189 196 204 211 213 219 222 209 194 190 196 205 218 242 250 244 236 216 202 220 236 243 251 256 260
59 70 109 97 102 139 174 195 182 169 174 177 176 183 190 199 185 188 195 198 202 215 215 216 221 214 190 183 186 201 216 225 234 257 251 235 233 234 237 237 242 246 247
65 85 115 111 92 90 183 184 153 160 174 179 178 181 185 199 192 192 200 205 205 216 222 222 224 212 187 178 178 197 212 218 230 245 249 236 229 237 249 239 232 233 241
11 84 108 157 157 140 122 140 140 157 173 179 183 197 202 201 193 198 207 206 201 203 218 238 237 219 205 194 186 198 212 214 220 229 240 243 231 231 232 228 224 229 240
142 120 163 147 144 142 114 131 136 158 179 185 185 204 213 200 199 196 198 54 204 188 194 212 228 222 189 170 179 196 209 213 205 216 239 239 240 243 245 241 235 238 247